EW1160 Weather Reports


Display with metric or nautical units.
time (UTC)temp
F
wind
direction
speed
MPH
gust
MPH
rain 1hr
in
rain 24hr
in
rain mn
in
humidity
%
barometer
mb
20260906220045 72 18 4.0 12.0 0.00 0.00 0.00 80 1016.4
20260906214544 72 4 5.0 11.0 0.00 0.00 0.00 79 1016.3
20260906213048 72 8 5.0 10.0 0.00 0.00 0.00 78 1016.4
20260906211524 72 9 4.0 9.0 0.00 0.00 0.00 79 1016.3
20260906210023 71 29 7.0 11.0 0.00 0.00 0.00 78 1016.5
20260906204506 71 8 6.0 12.0 0.00 0.00 0.00 78 1016.6
20260906203008 71 8 6.0 11.0 0.00 0.00 0.00 79 1016.4
20260906201614 71 23 3.0 11.0 0.00 0.00 0.00 80 1016.3
20260906200053 71 26 4.0 10.0 0.00 0.00 0.00 80 1016.3
20260906194552 71 10 1.0 11.0 0.00 0.00 0.00 81 1016.4
20260906193058 71 20 5.0 10.0 0.00 0.00 0.00 81 1016.4
20260906191550 71 8 3.0 10.0 0.00 0.00 0.00 81 1016.5
20260906190050 70 57 4.0 10.0 0.00 0.00 0.00 81 1016.6
20260906184549 70 27 3.0 10.0 0.00 0.00 0.00 81 1016.8
20260906183049 70 343 3.0 9.0 0.00 0.00 0.00 81 1016.9
20260906181554 70 35 3.0 10.0 0.00 0.00 0.00 80 1017.0
20260906180047 70 8 4.0 11.0 0.00 0.00 0.00 81 1017.0
20260906174534 70 11 4.0 10.0 0.00 0.00 0.00 79 1017.2
20260906173012 70 359 4.0 10.0 0.00 0.00 0.00 78 1017.3
20260906171512 70 9 5.0 10.0 0.00 0.00 0.00 80 1017.4
20260906170107 70 9 4.0 10.0 0.00 0.00 0.00 79 1017.4
20260906164554 70 354 5.0 9.0 0.00 0.00 0.00 78 1017.3
20260906163038 70 354 3.0 10.0 0.00 0.00 0.00 75 1017.2
20260906161534 71 11 3.0 8.0 0.00 0.00 0.00 74 1017.3
20260906160020 70 322 3.0 10.0 0.00 0.00 0.00 76 1017.3
20260906154512 70 10 4.0 9.0 0.00 0.00 0.00 78 1017.2
20260906153053 69 319 2.0 8.0 0.00 0.00 0.00 81 1017.1
20260906151550 69 106 0.0 10.0 0.00 0.00 0.00 82 1017.0
20260906150030 68 28 2.0 6.0 0.00 0.00 0.00 84 1017.0
20260906144527 68 13 2.0 6.0 0.00 0.00 0.00 85 1016.9
20260906143009 67 21 0.0 7.0 0.00 0.00 0.00 85 1016.8
20260906141512 67 12 2.0 7.0 0.00 0.00 0.00 87 1016.7
20260906140056 67 359 1.0 7.0 0.00 0.00 0.00 87 1016.7
20260906134545 66 354 2.0 6.0 0.00 0.00 0.00 89 1016.6
20260906133024 65 4 2.0 6.0 0.00 0.00 0.00 89 1016.7
20260906131521 63 113 0.0 5.0 0.00 0.00 0.00 90 1016.7
20260906130011 62 108 0.0 1.0 0.00 0.00 0.00 92 1016.6
20260906124509 61 106 0.0 1.0 0.00 0.00 0.00 92 1016.3
20260906123008 61 105 0.0 1.0 0.00 0.00 0.00 92 1016.2
20260906121507 60 105 0.0 1.0 0.00 0.00 0.00 92 1016.0
20260906120005 59 106 0.0 1.0 0.00 0.00 0.00 93 1016.0
20260906114506 59 105 0.0 1.0 0.00 0.00 0.00 92 1015.8
20260906113100 58 104 0.0 0.0 0.00 0.00 0.00 92 1015.5
20260906111618 58 104 0.0 0.0 0.00 0.00 0.00 92 1015.4
20260906110046 58 104 0.0 1.0 0.00 0.00 0.00 92 1015.3
20260906104546 58 105 0.0 0.0 0.00 0.00 0.00 92 1015.3
20260906103043 59 104 0.0 0.0 0.00 0.00 0.00 92 1015.2
20260906101545 59 105 0.0 0.0 0.00 0.00 0.00 92 1015.2
20260906100043 59 104 0.0 0.0 0.00 0.00 0.00 91 1015.1
20260906094540 60 104 0.0 0.0 0.00 0.00 0.00 92 1015.0
20260906093041 60 105 0.0 0.0 0.00 0.00 0.00 92 1014.9
20260906091538 60 105 0.0 0.0 0.00 0.00 0.00 92 1014.8
20260906090020 60 105 0.0 0.0 0.00 0.00 0.00 91 1014.7
20260906084520 60 104 0.0 0.0 0.00 0.00 0.00 92 1014.7
20260906083003 60 105 0.0 0.0 0.00 0.00 0.00 92 1014.6
20260906081600 60 104 0.0 0.0 0.00 0.00 0.00 91 1014.6
20260906080041 60 104 0.0 0.0 0.00 0.00 0.00 91 1014.5
20260906074541 59 104 0.0 0.0 0.00 0.00 0.00 91 1014.4
20260906073021 59 105 0.0 0.0 0.00 0.00 0.00 91 1014.4
20260906071521 59 104 0.0 0.0 0.00 0.00 0.00 91 1014.3
20260906070003 59 104 0.0 0.0 0.00 0.00 0.00 91 1014.3
20260906064503 59 104 0.0 0.0 0.00 0.00 0.00 90 1014.3
20260906063044 60 104 0.0 0.0 0.00 0.00 0.00 91 1014.3
20260906061544 60 106 0.0 1.0 0.00 0.00 0.00 91 1014.4
20260906060027 60 104 0.0 0.0 0.00 0.00 0.00 90 1014.3
20260906054539 60 104 0.0 0.0 0.00 0.00 0.00 90 1014.2
20260906053012 60 104 0.0 0.0 0.00 0.00 0.00 90 1014.2
20260906051510 60 104 0.0 0.0 0.00 0.00 0.00 90 1014.0
20260906050009 61 104 0.0 0.0 0.00 0.00 0.00 90 1014.0
20260906044506 61 104 0.0 0.0 0.00 0.00 0.00 89 1014.0
20260906043013 62 104 0.0 0.0 0.00 0.00 0.00 89 1014.0
20260906041503 62 104 0.0 0.0 0.00 0.00 0.00 89 1013.8
20260906040136 63 104 0.0 1.0 0.00 0.00 0.00 88 1013.6
20260906034605 64 104 0.0 1.0 0.00 0.01 0.00 88 1013.6
20260906033052 64 102 0.0 2.0 0.00 0.01 0.00 88 1013.5
20260906031539 65 113 0.0 2.0 0.00 0.01 0.00 88 1013.6
20260906030020 66 53 0.0 4.0 0.00 0.01 0.00 87 1013.6
20260906024520 66 48 0.0 5.0 0.00 0.01 0.00 87 1013.5
20260906023002 67 8 1.0 7.0 0.00 0.01 0.00 87 1013.6
20260906021503 67 10 1.0 8.0 0.00 0.01 0.00 87 1013.7
20260906020043 67 11 4.0 8.0 0.00 0.01 0.00 87 1013.6
20260906014543 67 20 4.0 10.0 0.00 0.01 0.00 86 1013.4
20260906013028 66 21 4.0 10.0 0.00 0.01 0.00 86 1013.3
20260906011524 66 12 3.0 9.0 0.00 0.01 0.00 85 1013.3
20260906010007 66 8 2.0 10.0 0.00 0.01 0.00 83 1013.3
20260906004507 66 359 2.0 8.0 0.00 0.01 0.00 82 1013.1
20260906003049 67 354 3.0 10.0 0.00 0.01 0.00 81 1013.1
20260906001549 67 18 3.0 9.0 0.00 0.01 0.00 78 1013.2
20260906000031 67 21 4.0 8.0 0.00 0.01 0.00 74 1013.2
20260905234530 68 4 4.0 10.0 0.00 0.01 0.00 74 1013.2
20260905233018 68 21 1.0 12.0 0.00 0.01 0.00 75 1013.4
20260905231520 69 359 4.0 9.0 0.00 0.01 0.00 73 1013.2
20260905230017 70 15 4.0 10.0 0.00 0.01 0.00 71 1013.3
20260905224536 70 15 4.0 12.0 0.00 0.01 0.00 70 1013.2
20260905223020 70 12 3.0 11.0 0.00 0.01 0.00 70 1013.1
20260905221515 71 4 5.0 10.0 0.00 0.01 0.00 70 1013.1